Location: McFarlands Corners
(41.4117°N, 81.3382°W)
Time: 13:06:17
(UTC+00:00)

Explorer 7 - Pass Details

Date: 17 February 2026
Orbit: 430 x 541 km, 50.2° (Epoch: 12 March)

Event Time Altitude Azimuth Distance (km) Brightness Sun altitude
Rises 21:33:45 0° 261° (W) 2,434 11.5 14.4°
Reaches altitude 10° 21:35:58 10° 270° (W) 1,581 10.4 14.0°
Maximum altitude 21:39:17 35° 339° (NNW) 760 7.6 13.5°
Drops below altitude 10° 21:42:43 10° 47° (NE) 1,645 8.7 12.9°
Sets 21:45:04 0° 56° (NE) 2,549 9.6 12.5°
